Time,TemperatureF,DewpointF,PressureIn,WindDirection,WindDirectionDegrees,WindSpeedMPH,WindSpeedGustMPH,Humidity,HourlyPrecipIn,Conditions,Clouds,dailyrainin,SoftwareType,DateUTC
2013-11-22 00:01:00,42.1,57.9,30.30,NE,49,7.0,9.0,0,-99.99,,,-99.99,meteohub,2013-11-22 05:01:00,
2013-11-22 00:02:00,42.1,57.9,30.30,ENE,77,7.0,9.0,0,-99.99,,,-99.99,meteohub,2013-11-22 05:02:00,
2013-11-22 00:03:00,42.1,57.9,30.30,ENE,77,7.0,9.0,0,-99.99,,,-99.99,meteohub,2013-11-22 05:03:00,
2013-11-22 00:05:00,42.1,57.9,30.30,ENE,77,7.0,9.0,0,-99.99,,,-99.99,meteohub,2013-11-22 05:05:00,
2013-11-22 00:09:00,42.1,57.9,30.30,NE,46,6.0,9.0,0,-99.99,,,-99.99,meteohub,2013-11-22 05:09:00,
2013-11-22 00:14:00,42.3,57.9,30.30,ENE,67,8.0,9.0,0,-99.99,,,-99.99,meteohub,2013-11-22 05:14:00,
2013-11-22 00:19:00,42.3,57.9,30.30,NE,50,5.0,7.0,0,-99.99,,,-99.99,meteohub,2013-11-22 05:19:00,
2013-11-22 00:24:00,42.8,57.9,30.29,NE,45,5.0,8.0,0,-99.99,,,-99.99,meteohub,2013-11-22 05:24:00,
2013-11-22 00:29:00,42.6,57.9,30.29,East,98,7.0,8.0,0,-99.99,,,-99.99,meteohub,2013-11-22 05:29:00,
2013-11-22 00:34:00,42.6,57.9,30.29,NE,54,6.0,8.0,0,-99.99,,,-99.99,meteohub,2013-11-22 05:34:00,
2013-11-22 00:39:00,42.6,57.9,30.29,ENE,64,5.0,7.0,0,-99.99,,,-99.99,meteohub,2013-11-22 05:39:00,
2013-11-22 00:45:00,42.6,57.9,30.29,ENE,60,6.0,7.0,0,-99.99,,,-99.99,meteohub,2013-11-22 05:45:00,
2013-11-22 00:50:00,42.4,57.9,30.29,ENE,60,5.0,7.0,0,-99.99,,,-99.99,meteohub,2013-11-22 05:50:00,
2013-11-22 00:55:00,42.4,57.9,30.29,ENE,78,5.0,6.0,0,-99.99,,,-99.99,meteohub,2013-11-22 05:55:00,
2013-11-22 01:00:00,42.6,57.9,30.28,ENE,78,1.0,6.0,0,-99.99,,,-99.99,meteohub,2013-11-22 06:00:00,
2013-11-22 01:05:00,42.6,57.9,30.28,ENE,78,0.0,6.0,0,-99.99,,,-99.99,meteohub,2013-11-22 06:05:00,
2013-11-22 01:10:00,43.0,57.9,30.28,ENE,60,7.0,7.0,0,-99.99,,,-99.99,meteohub,2013-11-22 06:10:00,
2013-11-22 01:15:00,43.0,57.9,30.28,ENE,74,6.0,7.0,0,-99.99,,,-99.99,meteohub,2013-11-22 06:15:00,
2013-11-22 01:20:00,42.8,57.9,30.27,East,85,4.0,7.0,0,-99.99,,,-99.99,meteohub,2013-11-22 06:20:00,
2013-11-22 01:26:00,43.0,57.9,30.27,ENE,77,6.0,7.0,0,-99.99,,,-99.99,meteohub,2013-11-22 06:26:00,
2013-11-22 01:31:00,43.2,57.9,30.26,East,84,7.0,7.0,0,-99.99,,,-99.99,meteohub,2013-11-22 06:31:00,
2013-11-22 01:36:00,43.2,57.9,30.26,ENE,64,5.0,7.0,0,-99.99,,,-99.99,meteohub,2013-11-22 06:36:00,
2013-11-22 01:41:00,43.2,57.9,30.26,ENE,63,6.0,7.0,0,-99.99,,,-99.99,meteohub,2013-11-22 06:41:00,
2013-11-22 01:46:00,43.2,57.9,30.26,NE,54,8.0,8.0,0,-99.99,,,-99.99,meteohub,2013-11-22 06:46:00,
2013-11-22 01:51:00,43.2,57.9,30.26,ENE,63,6.0,8.0,0,-99.99,,,-99.99,meteohub,2013-11-22 06:51:00,
2013-11-22 01:56:00,43.2,57.9,30.26,NE,52,6.0,8.0,0,-99.99,,,-99.99,meteohub,2013-11-22 06:56:00,
2013-11-22 02:01:00,43.2,57.9,30.25,ENE,73,7.0,8.0,0,-99.99,,,-99.99,meteohub,2013-11-22 07:01:00,
2013-11-22 02:07:00,43.2,57.9,30.26,ENE,66,6.0,7.0,0,-99.99,,,-99.99,meteohub,2013-11-22 07:07:00,
2013-11-22 02:12:00,43.3,57.9,30.25,NE,49,7.0,7.0,0,-99.99,,,-99.99,meteohub,2013-11-22 07:12:00,
2013-11-22 02:17:00,43.5,57.9,30.25,NE,45,7.0,7.0,0,-99.99,,,-99.99,meteohub,2013-11-22 07:17:00,
2013-11-22 02:22:00,43.9,57.9,30.25,East,81,6.0,7.0,0,-99.99,,,-99.99,meteohub,2013-11-22 07:22:00,
2013-11-22 02:27:00,43.9,59.0,30.24,East,80,6.0,7.0,0,-99.99,,,-99.99,meteohub,2013-11-22 07:27:00,
2013-11-22 02:32:00,44.8,59.0,30.24,NE,52,6.0,7.0,0,-99.99,,,-99.99,meteohub,2013-11-22 07:32:00,
2013-11-22 02:37:00,44.4,57.9,30.25,NE,54,7.0,7.0,0,-99.99,,,-99.99,meteohub,2013-11-22 07:37:00,
2013-11-22 02:42:00,44.4,57.9,30.24,ENE,63,7.0,7.0,0,-99.99,,,-99.99,meteohub,2013-11-22 07:42:00,
2013-11-22 02:47:00,44.8,57.9,30.25,ENE,66,8.0,8.0,0,-99.99,,,-99.99,meteohub,2013-11-22 07:47:00,
2013-11-22 02:52:00,44.4,57.9,30.25,ENE,66,5.0,8.0,0,-99.99,,,-99.99,meteohub,2013-11-22 07:52:00,
2013-11-22 02:57:00,44.2,57.9,30.24,ENE,68,5.0,8.0,0,-99.99,,,-99.99,meteohub,2013-11-22 07:57:00,
2013-11-22 03:02:00,44.4,57.9,30.25,ENE,61,7.0,8.0,0,-99.99,,,-99.99,meteohub,2013-11-22 08:02:00,
2013-11-22 03:07:00,44.2,57.9,30.24,ENE,61,6.0,7.0,0,-99.99,,,-99.99,meteohub,2013-11-22 08:07:00,
2013-11-22 03:12:00,44.2,57.9,30.23,ENE,61,6.0,7.0,0,-99.99,,,-99.99,meteohub,2013-11-22 08:12:00,
2013-11-22 03:17:00,44.4,57.9,30.23,NE,45,7.0,7.0,0,-99.99,,,-99.99,meteohub,2013-11-22 08:17:00,
2013-11-22 03:22:00,44.8,57.9,30.23,ENE,61,5.0,7.0,0,-99.99,,,-99.99,meteohub,2013-11-22 08:22:00,
2013-11-22 03:27:00,44.6,57.9,30.22,ENE,66,9.0,9.0,0,-99.99,,,-99.99,meteohub,2013-11-22 08:27:00,
2013-11-22 03:32:00,44.6,57.9,30.22,ENE,60,5.0,9.0,0,-99.99,,,-99.99,meteohub,2013-11-22 08:32:00,
2013-11-22 03:37:00,44.8,57.9,30.22,NE,49,4.0,9.0,0,-99.99,,,-99.99,meteohub,2013-11-22 08:37:00,
2013-11-22 03:42:00,44.8,57.9,30.22,NNE,33,4.0,9.0,0,-99.99,,,-99.99,meteohub,2013-11-22 08:42:00,
2013-11-22 03:47:00,44.4,57.9,30.22,NNE,33,3.0,5.0,0,-99.99,,,-99.99,meteohub,2013-11-22 08:47:00,
2013-11-22 03:52:00,44.8,57.9,30.22,NE,47,7.0,7.0,0,-99.99,,,-99.99,meteohub,2013-11-22 08:52:00,
2013-11-22 03:57:00,44.6,57.9,30.22,NE,54,5.0,7.0,0,-99.99,,,-99.99,meteohub,2013-11-22 08:57:00,
2013-11-22 04:02:00,44.4,57.9,30.22,SE,126,5.0,7.0,0,-99.99,,,-99.99,meteohub,2013-11-22 09:02:00,
2013-11-22 04:07:00,44.2,57.9,30.21,ENE,66,4.0,7.0,0,-99.99,,,-99.99,meteohub,2013-11-22 09:07:00,
2013-11-22 04:12:00,45.0,57.9,30.21,ESE,113,5.0,5.0,0,-99.99,,,-99.99,meteohub,2013-11-22 09:12:00,
2013-11-22 04:17:00,45.0,57.9,30.21,NE,47,6.0,6.0,0,-99.99,,,-99.99,meteohub,2013-11-22 09:17:00,
2013-11-22 04:23:00,45.7,57.9,30.20,NE,47,0.0,6.0,0,-99.99,,,-99.99,meteohub,2013-11-22 09:23:00,
2013-11-22 04:28:00,45.9,57.9,30.20,NNE,33,0.0,6.0,0,-99.99,,,-99.99,meteohub,2013-11-22 09:28:00,
2013-11-22 04:33:00,45.9,57.9,30.20,ENE,60,3.0,6.0,0,-99.99,,,-99.99,meteohub,2013-11-22 09:33:00,
2013-11-22 04:38:00,46.0,57.9,30.19,ENE,59,4.0,4.0,0,-99.99,,,-99.99,meteohub,2013-11-22 09:38:00,
2013-11-22 04:43:00,46.2,57.9,30.19,ENE,70,5.0,5.0,0,-99.99,,,-99.99,meteohub,2013-11-22 09:43:00,
2013-11-22 04:48:00,46.0,59.0,30.20,ENE,73,4.0,5.0,0,-99.99,,,-99.99,meteohub,2013-11-22 09:48:00,
2013-11-22 04:53:00,45.9,59.0,30.20,ENE,73,0.0,6.0,0,-99.99,,,-99.99,meteohub,2013-11-22 09:53:00,
2013-11-22 04:58:00,45.9,59.0,30.20,ENE,73,0.0,6.0,0,-99.99,,,-99.99,meteohub,2013-11-22 09:58:00,
2013-11-22 05:03:00,46.6,59.0,30.20,ENE,73,0.0,6.0,0,-99.99,,,-99.99,meteohub,2013-11-22 10:03:00,
2013-11-22 05:09:00,46.9,59.0,30.20,ENE,73,0.0,4.0,0,-99.99,,,-99.99,meteohub,2013-11-22 10:09:00,
2013-11-22 05:14:00,46.9,59.0,30.20,ENE,73,0.0,0.0,0,-99.99,,,-99.99,meteohub,2013-11-22 10:14:00,
2013-11-22 05:19:00,47.8,59.0,30.19,ENE,73,0.0,0.0,0,-99.99,,,-99.99,meteohub,2013-11-22 10:19:00,
2013-11-22 05:24:00,47.5,59.0,30.19,ENE,73,0.0,0.0,0,-99.99,,,-99.99,meteohub,2013-11-22 10:24:00,
2013-11-22 05:29:00,47.1,59.0,30.19,ENE,73,0.0,0.0,0,-99.99,,,-99.99,meteohub,2013-11-22 10:29:00,
2013-11-22 05:34:00,46.9,59.0,30.19,ENE,73,0.0,0.0,0,-99.99,,,-99.99,meteohub,2013-11-22 10:34:00,
2013-11-22 05:39:00,46.9,59.0,30.19,ENE,73,0.0,0.0,0,-99.99,,,-99.99,meteohub,2013-11-22 10:39:00,
2013-11-22 05:44:00,47.3,59.0,30.20,ENE,73,0.0,0.0,0,-99.99,,,-99.99,meteohub,2013-11-22 10:44:00,
2013-11-22 05:49:00,46.9,59.0,30.19,ENE,73,0.0,0.0,0,-99.99,,,-99.99,meteohub,2013-11-22 10:49:00,
2013-11-22 05:55:00,48.0,59.0,30.19,ENE,73,0.0,0.0,0,-99.99,,,-99.99,meteohub,2013-11-22 10:55:00,
2013-11-22 06:00:00,47.5,59.0,30.19,ENE,73,0.0,0.0,0,-99.99,,,-99.99,meteohub,2013-11-22 11:00:00,
2013-11-22 06:05:00,49.3,59.0,30.19,ENE,73,0.0,0.0,0,-99.99,,,-99.99,meteohub,2013-11-22 11:05:00,
2013-11-22 06:10:00,49.3,59.0,30.19,ENE,73,0.0,0.0,0,-99.99,,,-99.99,meteohub,2013-11-22 11:10:00,
2013-11-22 06:15:00,48.9,59.0,30.19,ENE,73,0.0,0.0,0,-99.99,,,-99.99,meteohub,2013-11-22 11:15:00,
2013-11-22 06:20:00,50.2,59.0,30.19,WSW,254,6.0,0.0,0,-99.99,,,-99.99,meteohub,2013-11-22 11:20:00,
2013-11-22 06:25:00,49.6,59.0,30.19,WSW,254,0.0,6.0,0,-99.99,,,-99.99,meteohub,2013-11-22 11:25:00,
2013-11-22 06:30:00,49.1,59.0,30.19,WSW,254,0.0,6.0,0,-99.99,,,-99.99,meteohub,2013-11-22 11:30:00,
2013-11-22 06:35:00,48.7,59.0,30.19,WSW,254,0.0,6.0,0,-99.99,,,-99.99,meteohub,2013-11-22 11:35:00,
2013-11-22 06:41:00,48.2,59.0,30.18,WSW,254,0.0,0.0,0,-99.99,,,-99.99,meteohub,2013-11-22 11:41:00,
2013-11-22 06:46:00,47.8,59.0,30.19,WSW,254,0.0,0.0,0,-99.99,,,-99.99,meteohub,2013-11-22 11:46:00,
2013-11-22 06:51:00,47.5,59.0,30.19,WSW,254,0.0,0.0,0,-99.99,,,-99.99,meteohub,2013-11-22 11:51:00,
2013-11-22 06:56:00,47.3,59.0,30.19,WSW,254,0.0,0.0,0,-99.99,,,-99.99,meteohub,2013-11-22 11:56:00,
2013-11-22 07:01:00,47.5,59.0,30.19,WSW,254,0.0,0.0,0,-99.99,,,-99.99,meteohub,2013-11-22 12:01:00,
2013-11-22 07:06:00,47.5,59.0,30.18,WSW,254,0.0,0.0,0,-99.99,,,-99.99,meteohub,2013-11-22 12:06:00,
2013-11-22 07:11:00,47.7,59.0,30.18,WSW,254,0.0,0.0,0,-99.99,,,-99.99,meteohub,2013-11-22 12:11:00,
2013-11-22 07:16:00,47.8,59.0,30.18,WSW,254,0.0,0.0,0,-99.99,,,-99.99,meteohub,2013-11-22 12:16:00,
2013-11-22 07:22:00,47.8,59.0,30.18,WSW,254,0.0,0.0,0,-99.99,,,-99.99,meteohub,2013-11-22 12:22:00,
2013-11-22 07:27:00,48.0,59.0,30.18,WSW,254,0.0,0.0,0,-99.99,,,-99.99,meteohub,2013-11-22 12:27:00,
2013-11-22 07:32:00,47.8,59.0,30.19,WSW,254,0.0,0.0,0,-99.99,,,-99.99,meteohub,2013-11-22 12:32:00,
2013-11-22 07:37:00,47.7,59.0,30.18,WSW,254,0.0,0.0,0,-99.99,,,-99.99,meteohub,2013-11-22 12:37:00,
2013-11-22 07:42:00,48.6,59.0,30.19,WSW,254,0.0,0.0,0,-99.99,,,-99.99,meteohub,2013-11-22 12:42:00,
2013-11-22 07:47:00,48.6,59.0,30.19,WSW,254,0.0,0.0,0,-99.99,,,-99.99,meteohub,2013-11-22 12:47:00,
2013-11-22 07:52:00,48.4,59.0,30.19,WSW,254,0.0,0.0,0,-99.99,,,-99.99,meteohub,2013-11-22 12:52:00,
2013-11-22 07:57:00,49.8,59.0,30.18,WSW,254,0.0,0.0,0,-99.99,,,-99.99,meteohub,2013-11-22 12:57:00,
2013-11-22 08:02:00,49.8,59.0,30.19,WSW,254,0.0,0.0,0,-99.99,,,-99.99,meteohub,2013-11-22 13:02:00,
2013-11-22 08:07:00,48.9,59.0,30.19,WSW,254,0.0,0.0,0,-99.99,,,-99.99,meteohub,2013-11-22 13:07:00,
2013-11-22 08:12:00,50.5,59.0,30.18,WSW,254,0.0,0.0,0,-99.99,,,-99.99,meteohub,2013-11-22 13:12:00,
2013-11-22 08:17:00,51.1,59.0,30.18,WSW,254,0.0,0.0,0,-99.99,,,-99.99,meteohub,2013-11-22 13:17:00,
2013-11-22 08:22:00,51.4,59.0,30.18,WSW,254,0.0,0.0,0,-99.99,,,-99.99,meteohub,2013-11-22 13:22:00,
2013-11-22 08:27:00,52.0,59.0,30.18,West,279,4.0,0.0,0,-99.99,,,-99.99,meteohub,2013-11-22 13:27:00,
2013-11-22 08:32:00,51.8,59.0,30.18,West,279,3.0,4.0,0,-99.99,,,-99.99,meteohub,2013-11-22 13:32:00,
2013-11-22 08:37:00,51.3,59.0,30.18,West,279,0.0,4.0,0,-99.99,,,-99.99,meteohub,2013-11-22 13:37:00,
2013-11-22 08:42:00,51.6,59.0,30.18,West,279,0.0,4.0,0,-99.99,,,-99.99,meteohub,2013-11-22 13:42:00,
2013-11-22 08:47:00,52.3,59.0,30.18,West,279,0.0,3.0,0,-99.99,,,-99.99,meteohub,2013-11-22 13:47:00,
2013-11-22 08:52:00,52.3,59.0,30.18,West,279,3.0,3.0,0,-99.99,,,-99.99,meteohub,2013-11-22 13:52:00,
2013-11-22 08:58:00,52.3,59.0,30.18,West,279,0.0,3.0,0,-99.99,,,-99.99,meteohub,2013-11-22 13:58:00,
2013-11-22 09:03:00,52.5,59.0,30.18,West,279,0.0,3.0,0,-99.99,,,-99.99,meteohub,2013-11-22 14:03:00,
2013-11-22 09:08:00,53.4,59.0,30.18,SW,234,0.0,3.0,0,-99.99,,,-99.99,meteohub,2013-11-22 14:08:00,
2013-11-22 09:13:00,53.1,59.0,30.18,SW,234,3.0,0.0,0,-99.99,,,-99.99,meteohub,2013-11-22 14:13:00,
2013-11-22 09:18:00,53.1,59.0,30.18,SW,234,0.0,3.0,0,-99.99,,,-99.99,meteohub,2013-11-22 14:18:00,
2013-11-22 09:23:00,53.1,59.0,30.18,SW,234,0.0,3.0,0,-99.99,,,-99.99,meteohub,2013-11-22 14:23:00,
2013-11-22 09:28:00,52.9,59.0,30.18,SW,234,0.0,3.0,0,-99.99,,,-99.99,meteohub,2013-11-22 14:28:00,
2013-11-22 09:33:00,52.9,59.0,30.18,SW,234,0.0,3.0,0,-99.99,,,-99.99,meteohub,2013-11-22 14:33:00,
2013-11-22 09:39:00,53.2,59.0,30.18,SW,234,0.0,0.0,0,-99.99,,,-99.99,meteohub,2013-11-22 14:39:00,
2013-11-22 09:44:00,54.0,59.0,30.17,SW,234,0.0,0.0,0,-99.99,,,-99.99,meteohub,2013-11-22 14:44:00,
2013-11-22 09:49:00,53.8,59.0,30.17,West,261,4.0,0.0,0,-99.99,,,-99.99,meteohub,2013-11-22 14:49:00,
2013-11-22 09:54:00,54.5,59.0,30.17,West,261,3.0,4.0,0,-99.99,,,-99.99,meteohub,2013-11-22 14:54:00,
2013-11-22 09:59:00,54.7,59.0,30.17,West,261,0.0,4.0,0,-99.99,,,-99.99,meteohub,2013-11-22 14:59:00,
2013-11-22 10:04:00,54.7,59.0,30.17,West,261,0.0,4.0,0,-99.99,,,-99.99,meteohub,2013-11-22 15:04:00,
2013-11-22 10:09:00,54.5,59.0,30.17,West,261,0.0,4.0,0,-99.99,,,-99.99,meteohub,2013-11-22 15:09:00,
2013-11-22 10:14:00,54.3,59.0,30.17,West,261,0.0,3.0,0,-99.99,,,-99.99,meteohub,2013-11-22 15:14:00,
2013-11-22 10:19:00,54.0,59.0,30.17,West,261,0.0,0.0,0,-99.99,,,-99.99,meteohub,2013-11-22 15:19:00,
2013-11-22 10:25:00,54.3,59.0,30.17,West,261,0.0,0.0,0,-99.99,,,-99.99,meteohub,2013-11-22 15:25:00,
2013-11-22 10:30:00,54.9,59.0,30.17,West,261,0.0,0.0,0,-99.99,,,-99.99,meteohub,2013-11-22 15:30:00,
2013-11-22 10:35:00,54.7,59.0,30.17,West,261,0.0,0.0,0,-99.99,,,-99.99,meteohub,2013-11-22 15:35:00,
2013-11-22 10:40:00,54.9,59.0,30.17,West,261,0.0,0.0,0,-99.99,,,-99.99,meteohub,2013-11-22 15:40:00,
2013-11-22 10:45:00,54.5,59.0,30.16,West,261,0.0,0.0,0,-99.99,,,-99.99,meteohub,2013-11-22 15:45:00,
2013-11-22 10:50:00,55.0,59.0,30.17,West,261,0.0,0.0,0,-99.99,,,-99.99,meteohub,2013-11-22 15:50:00,
2013-11-22 10:55:00,56.5,59.0,30.16,West,261,0.0,0.0,0,-99.99,,,-99.99,meteohub,2013-11-22 15:55:00,
2013-11-22 11:00:00,56.7,59.0,30.16,West,261,0.0,0.0,0,-99.99,,,-99.99,meteohub,2013-11-22 16:00:00,
2013-11-22 11:05:00,56.1,59.0,30.15,West,261,0.0,0.0,0,-99.99,,,-99.99,meteohub,2013-11-22 16:05:00,
2013-11-22 11:11:00,57.0,59.0,30.15,West,261,0.0,0.0,0,-99.99,,,-99.99,meteohub,2013-11-22 16:11:00,
2013-11-22 11:16:00,57.0,60.1,30.15,West,261,0.0,0.0,0,-99.99,,,-99.99,meteohub,2013-11-22 16:16:00,
2013-11-22 11:21:00,57.4,60.1,30.15,West,261,0.0,0.0,0,-99.99,,,-99.99,meteohub,2013-11-22 16:21:00,
2013-11-22 11:26:00,57.7,60.1,30.15,West,261,0.0,0.0,0,-99.99,,,-99.99,meteohub,2013-11-22 16:26:00,
2013-11-22 11:31:00,57.7,60.1,30.14,West,261,0.0,0.0,0,-99.99,,,-99.99,meteohub,2013-11-22 16:31:00,
2013-11-22 11:36:00,57.7,60.1,30.14,West,261,0.0,0.0,0,-99.99,,,-99.99,meteohub,2013-11-22 16:36:00,
2013-11-22 11:41:00,56.8,60.1,30.14,West,261,0.0,0.0,0,-99.99,,,-99.99,meteohub,2013-11-22 16:41:00,
2013-11-22 11:46:00,56.7,60.1,30.14,West,261,0.0,0.0,0,-99.99,,,-99.99,meteohub,2013-11-22 16:46:00,
2013-11-22 11:51:00,57.0,60.1,30.13,West,261,0.0,0.0,0,-99.99,,,-99.99,meteohub,2013-11-22 16:51:00,
2013-11-22 11:57:00,55.9,60.1,30.12,West,261,0.0,0.0,0,-99.99,,,-99.99,meteohub,2013-11-22 16:57:00,
2013-11-22 12:02:00,55.6,60.1,30.12,West,261,0.0,0.0,0,-99.99,,,-99.99,meteohub,2013-11-22 17:02:00,
2013-11-22 12:07:00,55.9,60.1,30.12,West,261,0.0,0.0,0,-99.99,,,-99.99,meteohub,2013-11-22 17:07:00,
2013-11-22 12:12:00,55.8,60.1,30.13,West,261,0.0,0.0,0,-99.99,,,-99.99,meteohub,2013-11-22 17:12:00,
2013-11-22 12:17:00,55.9,60.1,30.12,West,261,0.0,0.0,0,-99.99,,,-99.99,meteohub,2013-11-22 17:17:00,
2013-11-22 12:22:00,56.8,60.1,30.12,West,261,0.0,0.0,0,-99.99,,,-99.99,meteohub,2013-11-22 17:22:00,
2013-11-22 12:27:00,58.1,60.1,30.12,West,261,0.0,0.0,0,-99.99,,,-99.99,meteohub,2013-11-22 17:27:00,
2013-11-22 12:32:00,58.1,60.1,30.12,West,261,0.0,0.0,0,-99.99,,,-99.99,meteohub,2013-11-22 17:32:00,
2013-11-22 12:37:00,58.1,60.1,30.11,West,261,0.0,0.0,0,-99.99,,,-99.99,meteohub,2013-11-22 17:37:00,
2013-11-22 12:42:00,58.1,60.1,30.11,West,261,0.0,0.0,0,-99.99,,,-99.99,meteohub,2013-11-22 17:42:00,
2013-11-22 12:48:00,58.3,60.1,30.11,West,261,0.0,0.0,0,-99.99,,,-99.99,meteohub,2013-11-22 17:48:00,
2013-11-22 12:53:00,57.9,60.1,30.11,West,261,0.0,0.0,0,-99.99,,,-99.99,meteohub,2013-11-22 17:53:00,
2013-11-22 12:58:00,57.6,60.1,30.10,West,261,0.0,0.0,0,-99.99,,,-99.99,meteohub,2013-11-22 17:58:00,
2013-11-22 13:03:00,57.4,60.1,30.10,West,261,0.0,0.0,0,-99.99,,,-99.99,meteohub,2013-11-22 18:03:00,
2013-11-22 13:08:00,56.5,60.1,30.10,West,261,0.0,0.0,0,-99.99,,,-99.99,meteohub,2013-11-22 18:08:00,
2013-11-22 13:13:00,56.1,60.1,30.10,West,261,0.0,0.0,0,-99.99,,,-99.99,meteohub,2013-11-22 18:13:00,
2013-11-22 13:18:00,56.1,60.1,30.10,West,261,0.0,0.0,0,-99.99,,,-99.99,meteohub,2013-11-22 18:18:00,
2013-11-22 13:23:00,56.1,60.1,30.09,West,261,0.0,0.0,0,-99.99,,,-99.99,meteohub,2013-11-22 18:23:00,
2013-11-22 13:28:00,55.9,60.1,30.09,West,261,0.0,0.0,0,-99.99,,,-99.99,meteohub,2013-11-22 18:28:00,
2013-11-22 13:34:00,55.9,60.1,30.09,West,261,0.0,0.0,0,-99.99,,,-99.99,meteohub,2013-11-22 18:34:00,
2013-11-22 13:39:00,55.6,60.1,30.09,West,261,0.0,0.0,0,-99.99,,,-99.99,meteohub,2013-11-22 18:39:00,
2013-11-22 13:44:00,55.2,60.1,30.08,West,261,0.0,0.0,0,-99.99,,,-99.99,meteohub,2013-11-22 18:44:00,
2013-11-22 13:49:00,54.9,60.1,30.08,West,261,0.0,0.0,0,-99.99,,,-99.99,meteohub,2013-11-22 18:49:00,
2013-11-22 13:54:00,55.4,60.1,30.08,West,261,0.0,0.0,0,-99.99,,,-99.99,meteohub,2013-11-22 18:54:00,
2013-11-22 13:59:00,55.9,60.1,30.07,West,261,0.0,0.0,0,-99.99,,,-99.99,meteohub,2013-11-22 18:59:00,
2013-11-22 14:04:00,55.9,60.1,30.07,West,261,0.0,0.0,0,-99.99,,,-99.99,meteohub,2013-11-22 19:04:00,
2013-11-22 14:09:00,55.8,60.1,30.07,West,261,0.0,0.0,0,-99.99,,,-99.99,meteohub,2013-11-22 19:09:00,
2013-11-22 14:14:00,55.4,60.1,30.07,West,261,0.0,0.0,0,-99.99,,,-99.99,meteohub,2013-11-22 19:14:00,
2013-11-22 14:20:00,55.6,60.1,30.07,West,261,0.0,0.0,0,-99.99,,,-99.99,meteohub,2013-11-22 19:20:00,
2013-11-22 14:25:00,56.1,60.1,30.07,West,261,0.0,0.0,0,-99.99,,,-99.99,meteohub,2013-11-22 19:25:00,
2013-11-22 14:30:00,56.1,60.1,30.07,West,261,0.0,0.0,0,-99.99,,,-99.99,meteohub,2013-11-22 19:30:00,
2013-11-22 14:35:00,56.5,61.0,30.07,West,261,0.0,0.0,0,-99.99,,,-99.99,meteohub,2013-11-22 19:35:00,
2013-11-22 14:40:00,56.3,61.0,30.06,West,261,0.0,0.0,0,-99.99,,,-99.99,meteohub,2013-11-22 19:40:00,
2013-11-22 14:45:00,55.9,61.0,30.06,West,261,0.0,0.0,0,-99.99,,,-99.99,meteohub,2013-11-22 19:45:00,
2013-11-22 14:50:00,55.8,61.0,30.06,West,261,0.0,0.0,0,-99.99,,,-99.99,meteohub,2013-11-22 19:50:00,
2013-11-22 14:55:00,55.4,61.0,30.06,West,261,0.0,0.0,0,-99.99,,,-99.99,meteohub,2013-11-22 19:55:00,
2013-11-22 15:00:00,55.2,61.0,30.06,West,261,0.0,0.0,0,-99.99,,,-99.99,meteohub,2013-11-22 20:00:00,
2013-11-22 15:06:00,55.2,61.0,30.05,West,261,0.0,0.0,0,-99.99,,,-99.99,meteohub,2013-11-22 20:06:00,
2013-11-22 15:11:00,55.2,61.0,30.05,West,261,0.0,0.0,0,-99.99,,,-99.99,meteohub,2013-11-22 20:11:00,
2013-11-22 15:16:00,55.6,61.0,30.05,West,261,0.0,0.0,0,-99.99,,,-99.99,meteohub,2013-11-22 20:16:00,
2013-11-22 15:21:00,55.2,61.0,30.06,West,261,0.0,0.0,0,-99.99,,,-99.99,meteohub,2013-11-22 20:21:00,
2013-11-22 15:26:00,54.9,61.0,30.05,West,261,0.0,0.0,0,-99.99,,,-99.99,meteohub,2013-11-22 20:26:00,
2013-11-22 15:31:00,55.0,61.0,30.05,West,261,0.0,0.0,0,-99.99,,,-99.99,meteohub,2013-11-22 20:31:00,
2013-11-22 15:36:00,55.0,61.0,30.05,West,261,0.0,0.0,0,-99.99,,,-99.99,meteohub,2013-11-22 20:36:00,
2013-11-22 15:41:00,54.9,61.0,30.05,West,261,0.0,0.0,0,-99.99,,,-99.99,meteohub,2013-11-22 20:41:00,
2013-11-22 15:46:00,55.0,61.0,30.04,West,261,0.0,0.0,0,-99.99,,,-99.99,meteohub,2013-11-22 20:46:00,
2013-11-22 15:52:00,55.0,61.0,30.04,West,261,0.0,0.0,0,-99.99,,,-99.99,meteohub,2013-11-22 20:52:00,
2013-11-22 15:57:00,54.9,61.0,30.04,West,261,0.0,0.0,0,-99.99,,,-99.99,meteohub,2013-11-22 20:57:00,
2013-11-22 16:02:00,54.9,61.0,30.04,West,261,0.0,0.0,0,-99.99,,,-99.99,meteohub,2013-11-22 21:02:00,
2013-11-22 16:07:00,55.0,61.0,30.04,West,261,0.0,0.0,0,-99.99,,,-99.99,meteohub,2013-11-22 21:07:00,
2013-11-22 16:12:00,54.7,61.0,30.04,West,261,0.0,0.0,0,-99.99,,,-99.99,meteohub,2013-11-22 21:12:00,
2013-11-22 16:17:00,54.5,61.0,30.04,West,261,0.0,0.0,0,-99.99,,,-99.99,meteohub,2013-11-22 21:17:00,
2013-11-22 16:22:00,54.7,61.0,30.04,West,261,0.0,0.0,0,-99.99,,,-99.99,meteohub,2013-11-22 21:22:00,
2013-11-22 16:27:00,54.7,61.0,30.03,West,261,0.0,0.0,0,-99.99,,,-99.99,meteohub,2013-11-22 21:27:00,
2013-11-22 16:32:00,54.3,61.0,30.03,West,261,0.0,0.0,0,-99.99,,,-99.99,meteohub,2013-11-22 21:32:00,
2013-11-22 16:37:00,54.7,61.0,30.03,West,261,0.0,0.0,0,-99.99,,,-99.99,meteohub,2013-11-22 21:37:00,
2013-11-22 16:42:00,54.9,61.0,30.03,West,261,0.0,0.0,0,-99.99,,,-99.99,meteohub,2013-11-22 21:42:00,
2013-11-22 16:47:00,54.9,61.0,30.03,West,261,0.0,0.0,0,-99.99,,,-99.99,meteohub,2013-11-22 21:47:00,
2013-11-22 16:52:00,54.7,61.0,30.02,West,261,0.0,0.0,0,-99.99,,,-99.99,meteohub,2013-11-22 21:52:00,
2013-11-22 16:57:00,54.7,61.0,30.02,West,261,0.0,0.0,0,-99.99,,,-99.99,meteohub,2013-11-22 21:57:00,
2013-11-22 17:02:00,54.9,61.0,30.03,West,261,0.0,0.0,0,-99.99,,,-99.99,meteohub,2013-11-22 22:02:00,
2013-11-22 17:07:00,55.0,61.0,30.02,West,261,0.0,0.0,0,-99.99,,,-99.99,meteohub,2013-11-22 22:07:00,
2013-11-22 17:12:00,55.6,61.0,30.02,West,261,0.0,0.0,0,-99.99,,,-99.99,meteohub,2013-11-22 22:12:00,
2013-11-22 17:17:00,55.8,61.0,30.02,West,261,0.0,0.0,0,-99.99,,,-99.99,meteohub,2013-11-22 22:17:00,
2013-11-22 17:22:00,55.4,61.0,30.02,West,261,0.0,0.0,0,-99.99,,,-99.99,meteohub,2013-11-22 22:22:00,
2013-11-22 17:27:00,55.6,61.0,30.01,West,268,0.0,0.0,0,-99.99,,,-99.99,meteohub,2013-11-22 22:27:00,
2013-11-22 17:32:00,55.9,61.0,30.01,West,268,5.0,0.0,0,-99.99,,,-99.99,meteohub,2013-11-22 22:32:00,
2013-11-22 17:37:00,55.8,61.0,30.02,West,268,0.0,5.0,0,-99.99,,,-99.99,meteohub,2013-11-22 22:37:00,
2013-11-22 17:42:00,55.9,61.0,30.02,West,268,0.0,5.0,0,-99.99,,,-99.99,meteohub,2013-11-22 22:42:00,
2013-11-22 17:47:00,55.6,61.0,30.02,West,268,0.0,5.0,0,-99.99,,,-99.99,meteohub,2013-11-22 22:47:00,
2013-11-22 17:52:00,55.4,61.0,30.01,West,268,0.0,0.0,0,-99.99,,,-99.99,meteohub,2013-11-22 22:52:00,
2013-11-22 17:57:00,55.8,61.0,30.01,WSW,247,0.0,0.0,0,-99.99,,,-99.99,meteohub,2013-11-22 22:57:00,
2013-11-22 18:03:00,55.4,61.0,30.01,WSW,247,7.0,7.0,0,-99.99,,,-99.99,meteohub,2013-11-22 23:03:00,
2013-11-22 18:08:00,55.2,61.0,30.01,WSW,247,0.0,7.0,0,-99.99,,,-99.99,meteohub,2013-11-22 23:08:00,
2013-11-22 18:13:00,55.6,61.0,30.02,WSW,251,0.0,7.0,0,-99.99,,,-99.99,meteohub,2013-11-22 23:13:00,
2013-11-22 18:18:00,55.6,61.0,30.02,WSW,251,5.0,7.0,0,-99.99,,,-99.99,meteohub,2013-11-22 23:18:00,
2013-11-22 18:23:00,55.2,62.1,30.02,WSW,251,0.0,5.0,0,-99.99,,,-99.99,meteohub,2013-11-22 23:23:00,
2013-11-22 18:28:00,55.6,62.1,30.01,WSW,251,0.0,5.0,0,-99.99,,,-99.99,meteohub,2013-11-22 23:28:00,
2013-11-22 18:33:00,55.8,62.1,30.01,WSW,251,0.0,5.0,0,-99.99,,,-99.99,meteohub,2013-11-22 23:33:00,
2013-11-22 18:38:00,55.2,63.0,30.01,WSW,251,0.0,0.0,0,-99.99,,,-99.99,meteohub,2013-11-22 23:38:00,
2013-11-22 18:43:00,54.9,63.0,30.01,SW,236,5.0,0.0,0,-99.99,,,-99.99,meteohub,2013-11-22 23:43:00,
2013-11-22 18:49:00,54.3,64.0,30.01,SW,236,0.0,5.0,0,-99.99,,,-99.99,meteohub,2013-11-22 23:49:00,
2013-11-22 18:54:00,54.3,64.0,30.01,SW,236,0.0,5.0,0,-99.99,,,-99.99,meteohub,2013-11-22 23:54:00,
2013-11-22 18:59:00,54.5,64.0,30.01,SW,236,0.0,5.0,0,-99.99,,,-99.99,meteohub,2013-11-22 23:59:00,
2013-11-22 19:04:00,54.3,64.0,30.01,SW,236,0.0,5.0,0,-99.99,,,-99.99,meteohub,2013-11-23 00:04:00,
2013-11-22 19:09:00,54.0,64.0,30.00,SW,236,0.0,0.0,0,-99.99,,,-99.99,meteohub,2013-11-23 00:09:00,
2013-11-22 19:14:00,54.0,64.0,30.00,SW,236,0.0,0.0,0,-99.99,,,-99.99,meteohub,2013-11-23 00:14:00,
2013-11-22 19:19:00,54.1,64.0,30.00,SW,236,0.0,0.0,0,-99.99,,,-99.99,meteohub,2013-11-23 00:19:00,
2013-11-22 19:24:00,53.8,64.0,30.00,SW,236,0.0,0.0,0,-99.99,,,-99.99,meteohub,2013-11-23 00:24:00,
2013-11-22 19:30:00,54.0,64.0,30.00,SW,233,5.0,0.0,0,-99.99,,,-99.99,meteohub,2013-11-23 00:30:00,
2013-11-22 19:35:00,54.3,64.0,30.00,SW,233,0.0,0.0,0,-99.99,,,-99.99,meteohub,2013-11-23 00:35:00,
2013-11-22 19:40:00,53.8,64.0,30.00,WSW,241,0.0,5.0,0,-99.99,,,-99.99,meteohub,2013-11-23 00:40:00,
2013-11-22 19:45:00,54.0,64.0,30.00,WSW,243,4.0,5.0,0,-99.99,,,-99.99,meteohub,2013-11-23 00:45:00,
2013-11-22 19:50:00,54.1,64.0,30.00,WSW,244,6.0,6.0,0,-99.99,,,-99.99,meteohub,2013-11-23 00:50:00,
2013-11-22 19:55:00,53.8,64.0,30.00,WSW,247,6.0,6.0,0,-99.99,,,-99.99,meteohub,2013-11-23 00:55:00,
2013-11-22 20:00:00,53.8,64.0,30.00,WSW,253,6.0,6.0,0,-99.99,,,-99.99,meteohub,2013-11-23 01:00:00,
2013-11-22 20:05:00,53.6,64.0,30.01,WSW,253,0.0,6.0,0,-99.99,,,-99.99,meteohub,2013-11-23 01:05:00,
2013-11-22 20:11:00,53.4,64.0,30.01,SW,234,0.0,6.0,0,-99.99,,,-99.99,meteohub,2013-11-23 01:11:00,
2013-11-22 20:16:00,53.8,64.0,30.01,SW,234,4.0,6.0,0,-99.99,,,-99.99,meteohub,2013-11-23 01:16:00,
2013-11-22 20:21:00,53.4,64.0,30.01,SW,234,0.0,4.0,0,-99.99,,,-99.99,meteohub,2013-11-23 01:21:00,
2013-11-22 20:26:00,53.2,64.0,30.02,SW,234,0.0,4.0,0,-99.99,,,-99.99,meteohub,2013-11-23 01:26:00,
2013-11-22 20:31:00,53.1,64.0,30.01,SW,234,0.0,4.0,0,-99.99,,,-99.99,meteohub,2013-11-23 01:31:00,
2013-11-22 20:36:00,52.7,64.0,30.01,SW,234,0.0,0.0,0,-99.99,,,-99.99,meteohub,2013-11-23 01:36:00,
2013-11-22 20:41:00,52.3,64.0,30.01,SW,234,0.0,0.0,0,-99.99,,,-99.99,meteohub,2013-11-23 01:41:00,
2013-11-22 20:46:00,52.3,64.0,30.01,SW,234,0.0,0.0,0,-99.99,,,-99.99,meteohub,2013-11-23 01:46:00,
2013-11-22 20:51:00,52.7,64.0,30.01,SW,234,0.0,0.0,0,-99.99,,,-99.99,meteohub,2013-11-23 01:51:00,
2013-11-22 20:57:00,52.7,64.0,30.01,SW,234,0.0,0.0,0,-99.99,,,-99.99,meteohub,2013-11-23 01:57:00,
2013-11-22 21:02:00,52.7,64.0,30.01,SW,234,0.0,0.0,0,-99.99,,,-99.99,meteohub,2013-11-23 02:02:00,
2013-11-22 21:07:00,52.3,64.0,30.01,SW,234,0.0,0.0,0,-99.99,,,-99.99,meteohub,2013-11-23 02:07:00,
2013-11-22 21:12:00,52.3,64.0,30.01,SW,234,0.0,0.0,0,-99.99,,,-99.99,meteohub,2013-11-23 02:12:00,
2013-11-22 21:17:00,52.3,64.0,30.01,WSW,248,0.0,0.0,0,-99.99,,,-99.99,meteohub,2013-11-23 02:17:00,
2013-11-22 21:22:00,52.2,64.0,30.01,SW,230,7.0,7.0,0,-99.99,,,-99.99,meteohub,2013-11-23 02:22:00,
2013-11-22 21:27:00,52.2,64.0,30.01,West,274,8.0,8.0,0,-99.99,,,-99.99,meteohub,2013-11-23 02:27:00,
2013-11-22 21:32:00,52.0,64.0,30.01,SW,236,7.0,8.0,0,-99.99,,,-99.99,meteohub,2013-11-23 02:32:00,
2013-11-22 21:37:00,52.0,64.0,30.01,SW,236,6.0,8.0,0,-99.99,,,-99.99,meteohub,2013-11-23 02:37:00,
2013-11-22 21:42:00,52.0,64.0,30.01,WSW,240,2.0,8.0,0,-99.99,,,-99.99,meteohub,2013-11-23 02:42:00,
2013-11-22 21:47:00,52.0,64.0,30.01,WSW,240,5.0,7.0,0,-99.99,,,-99.99,meteohub,2013-11-23 02:47:00,
2013-11-22 21:52:00,51.8,64.0,30.01,SW,232,3.0,6.0,0,-99.99,,,-99.99,meteohub,2013-11-23 02:52:00,
2013-11-22 21:57:00,52.0,64.0,30.01,SW,232,0.0,5.0,0,-99.99,,,-99.99,meteohub,2013-11-23 02:57:00,
2013-11-22 22:02:00,51.6,63.0,30.02,WSW,248,0.0,5.0,0,-99.99,,,-99.99,meteohub,2013-11-23 03:02:00,
2013-11-22 22:07:00,51.6,63.0,30.01,WSW,244,5.0,5.0,0,-99.99,,,-99.99,meteohub,2013-11-23 03:07:00,
2013-11-22 22:12:00,51.6,63.0,30.02,SSW,206,4.0,5.0,0,-99.99,,,-99.99,meteohub,2013-11-23 03:12:00,
2013-11-22 22:17:00,51.4,63.0,30.02,SSW,206,8.0,8.0,0,-99.99,,,-99.99,meteohub,2013-11-23 03:17:00,
2013-11-22 22:22:00,51.4,63.0,30.02,SSW,206,0.0,8.0,0,-99.99,,,-99.99,meteohub,2013-11-23 03:22:00,
2013-11-22 22:27:00,51.3,64.0,30.01,SSW,206,0.0,8.0,0,-99.99,,,-99.99,meteohub,2013-11-23 03:27:00,
2013-11-22 22:32:00,51.1,64.0,30.02,SSW,206,0.0,8.0,0,-99.99,,,-99.99,meteohub,2013-11-23 03:32:00,
2013-11-22 22:37:00,50.7,64.0,30.01,SSW,206,0.0,0.0,0,-99.99,,,-99.99,meteohub,2013-11-23 03:37:00,
2013-11-22 22:42:00,50.4,64.0,30.01,WSW,239,0.0,0.0,0,-99.99,,,-99.99,meteohub,2013-11-23 03:42:00,
2013-11-22 22:48:00,50.4,64.0,30.02,SSW,213,4.0,4.0,0,-99.99,,,-99.99,meteohub,2013-11-23 03:48:00,
2013-11-22 22:53:00,50.0,64.0,30.02,WSW,239,4.0,4.0,0,-99.99,,,-99.99,meteohub,2013-11-23 03:53:00,
2013-11-22 22:58:00,49.6,64.0,30.02,SW,236,5.0,5.0,0,-99.99,,,-99.99,meteohub,2013-11-23 03:58:00,
2013-11-22 23:03:00,49.5,64.0,30.01,WSW,247,9.0,9.0,0,-99.99,,,-99.99,meteohub,2013-11-23 04:03:00,
2013-11-22 23:08:00,49.3,64.0,30.01,WSW,247,0.0,10.0,0,-99.99,,,-99.99,meteohub,2013-11-23 04:08:00,
2013-11-22 23:13:00,49.1,64.0,30.02,WSW,243,3.0,10.0,0,-99.99,,,-99.99,meteohub,2013-11-23 04:13:00,
2013-11-22 23:18:00,48.9,64.0,30.02,WSW,257,4.0,10.0,0,-99.99,,,-99.99,meteohub,2013-11-23 04:18:00,
2013-11-22 23:23:00,48.6,64.0,30.02,WSW,257,0.0,10.0,0,-99.99,,,-99.99,meteohub,2013-11-23 04:23:00,
2013-11-22 23:29:00,48.6,64.0,30.02,WSW,257,0.0,4.0,0,-99.99,,,-99.99,meteohub,2013-11-23 04:29:00,
2013-11-22 23:34:00,48.0,64.0,30.02,WSW,239,6.0,6.0,0,-99.99,,,-99.99,meteohub,2013-11-23 04:34:00,
2013-11-22 23:39:00,48.0,64.0,30.03,WSW,237,6.0,6.0,0,-99.99,,,-99.99,meteohub,2013-11-23 04:39:00,
2013-11-22 23:44:00,47.7,64.0,30.03,WSW,237,5.0,6.0,0,-99.99,,,-99.99,meteohub,2013-11-23 04:44:00,
2013-11-22 23:49:00,47.5,64.0,30.03,WSW,246,8.0,8.0,0,-99.99,,,-99.99,meteohub,2013-11-23 04:49:00,
2013-11-22 23:54:00,47.3,64.0,30.03,WSW,246,0.0,8.0,0,-99.99,,,-99.99,meteohub,2013-11-23 04:54:00,
2013-11-22 23:59:00,47.1,64.0,30.03,WSW,248,0.0,8.0,0,-99.99,,,-99.99,meteohub,2013-11-23 04:59:00,